Location: Newark
(44.9684°N, 1.0319°E)
Time: 23:14:27
(UTC+00:00)

Tiangong 2 - Pass Details

Date: 22 July 2019
Orbit: 185 x 376 km, 42.8° (Epoch: 19 July)

Event Time Altitude Azimuth Distance (km) Brightness Sun altitude
Rises 20:05:48 0° 270° (W) 2,192 5.9 -5.5°
Reaches altitude 10° 20:08:23 10° 247° (WSW) 1,353 4.3 -5.9°
Maximum altitude 20:10:17 15° 208° (SSW) 1,085 3.3 -6.2°
Drops below altitude 10° 20:12:11 10° 170° (S) 1,349 3.4 -6.4°
Enters shadow 20:13:14 - 157° (SSE) 1,651 3.7 -6.6°
